Location: Baix
(44.7118°N, 4.7648°E)
Time: 15:33:36
(UTC+00:00)

Explorer 11/Cluster Stage 4 - Pass Details

Date: 27 November 2020
Orbit: 467 x 1258 km, 28.8° (Epoch: 14 January)

Event Time Altitude Azimuth Distance (km) Brightness Sun altitude
Rises 21:34:00 0° 217° (SW) 3,681 - -56.8°
Reaches altitude 10° 21:39:15 10° 184° (S) 2,492 - -57.5°
Maximum altitude 21:40:41 11° 170° (S) 2,360 - -57.7°
Drops below altitude 10° 21:42:03 10° 156° (SSE) 2,354 - -57.9°
Sets 21:46:25 0° 120° (ESE) 3,055 - -58.5°
